Погода во Фрибуре

Швейцария     46°48′24″N   7°09′40″E
темп.,
°C
ветер,
м/с
пор.,
м/с
влажн.,
%
обл.,
%
осадки,
мм/ч
давл.,
гПа
погр.,
м
17 августа, ср
ср1723:00+16ююв326333 0.0 101128
02:00+17ююз226290 0.1 101226
05:00+16ю217856 0.2 101316
08:00+15юв118812 0.8 101331
11:00+23с2251100 0.1 1012928
14:00+25с3244100 0.1 10111759
17:00+18всв3690100 7.6 1012292
20:00+15в2495100 9.3 1012125
18 августа, чт
чт1823:00+13ююз2498100 16.5 1016247
02:00+12ююз2597100 19.8 1015168
05:00+12ю119582 1.3 101521
08:00+13всв1193100 1.4 101457
11:00+18с216831 0.1 1014878
14:00+19ссв2264100 0.4 10131065
17:00+18ссв1271100 0.4 1013539
20:00+15в1193100 1.9 101325
19 августа, пт
пт1923:00+13юв2194100 0.9 101523
02:00+13ю119398 1.2 101412
05:00+13ююз1198100 2.5 101453
08:00+14сз019797 4.5 101659
11:00+17с128099 0.8 1016591
14:00+20с22615 1.6 10161171
17:00+22с124757 0.1 10161862
20:00+16зюз117859 0.4 101811
20 августа, сб
сб2023:00+14ююв228992 0.7 101918
02:00+15ююз1186100 0.9 101911
05:00+14ю118858 0.1 101911
08:00+14ю11890 0.1 102030
11:00+20ссз21552 0.0 1019982
14:00+23ссз324324 0.1 10181866
17:00+19с2373100 0.2 1018294
20:00+16вюв11878 1.3 101911
21 августа, вс
вс2123:00+14ююв229222 0.1 102017
02:00+13ююв229318 0.1 102018
05:00+12ююв229399 0.0 101916
08:00+14ююв1190100 0.0 101925
11:00+19с2267100 0.0 1018681
14:00+21с225848 0.5 10171330
17:00+22св2248100 0.8 10161709
20:00+17вюв2275100 1.0 101735